Location: Pine Mountain Observatory
(43.7910°N, 120.9377°W)
Time: 07:47:14
(UTC-07:00)

Tiros 1 despin weight - All Passes

Search period start: 24 May 2019 00:00
Search period end: 03 June 2019 00:00
Orbit: 594 x 643 km, 48.2° (Epoch: 24 May)

Date Brightness Start Highest point End Pass type
(mag) Time Alt. Az. Time Alt. Az. Time Alt. Az.
24 May - 09:45:40 10° SSE 09:48:07 14° SE 09:50:34 10° E daylight
24 May - 11:24:32 10° SW 11:29:00 63° SSE 11:33:33 10° ENE daylight
24 May - 13:06:13 10° W 13:10:42 54° N 13:15:16 10° ENE daylight
24 May - 14:48:15 10° WNW 14:52:46 53° N 14:57:21 10° E daylight
24 May - 16:29:54 10° WNW 16:34:31 68° SSW 16:39:10 10° SE daylight
24 May - 18:12:34 10° W 18:15:31 17° SW 18:18:27 10° S daylight
25 May - 10:00:38 10° SSW 10:04:24 27° SE 10:08:12 10° E daylight
25 May - 11:41:05 10° WSW 11:45:37 84° NNW 11:50:14 10° ENE daylight
25 May - 13:23:06 10° WNW 13:27:32 48° N 13:32:02 10° ENE daylight
25 May - 15:04:57 10° WNW 15:09:33 67° NNE 15:14:12 10° E daylight
25 May - 16:46:41 10° WNW 16:51:02 41° SW 16:55:25 10° SE daylight
26 May - 10:16:31 10° SW 10:20:48 47° SE 10:25:11 10° ENE daylight
26 May - 11:57:52 10° W 12:02:21 61° NNW 12:06:55 10° ENE daylight
26 May - 13:39:56 10° WNW 13:44:23 49° N 13:48:54 10° E daylight
26 May - 15:21:37 10° WNW 15:26:15 87° SSW 15:30:55 10° ESE daylight
26 May - 17:03:45 10° W 17:07:26 23° SW 17:11:07 10° S daylight
27 May - 08:53:12 10° S 08:56:19 19° SE 08:59:28 10° E daylight
27 May - 10:32:52 10° WSW 10:37:21 77° SSE 10:41:55 10° ENE daylight
27 May - 12:14:43 10° W 12:19:09 50° N 12:23:39 10° ENE daylight
27 May - 13:56:41 10° WNW 14:01:12 57° NNE 14:05:47 10° E daylight
27 May - 15:38:19 10° WNW 15:42:50 55° SSW 15:47:23 10° SE daylight
27 May - 17:21:45 10° WSW 17:23:41 12° SW 17:25:38 10° SSW daylight
28 May - 09:08:39 10° SSW 09:12:40 34° SE 09:16:44 10° ENE daylight
28 May - 10:49:31 10° WSW 10:54:01 72° NNW 10:58:36 10° ENE daylight
28 May - 12:31:35 10° WNW 12:35:59 48° N 12:40:28 10° ENE daylight
28 May - 14:13:21 10° WNW 14:17:57 76° NNE 14:22:36 10° ESE daylight
28 May - 15:55:11 10° W 15:59:19 32° SW 16:03:27 10° SSE daylight
29 May - 07:46:18 10° SSE 07:48:18 13° SE 07:50:18 10° ESE daylight
29 May - 09:24:45 10° SW 09:29:08 58° SSE 09:33:35 10° ENE daylight
29 May - 11:06:21 10° W 11:10:47 55° NNW 11:15:18 10° ENE daylight
29 May - 12:48:22 10° WNW 12:52:50 51° N 12:57:20 10° E daylight
29 May - 14:30:01 10° WNW 14:34:36 73° SSW 14:39:14 10° SE daylight
29 May - 16:12:30 10° W 16:15:39 18° SW 16:18:47 10° S daylight
30 May - 08:00:59 10° SSW 08:04:33 24° SE 08:08:10 10° E daylight
30 May - 09:41:15 10° WSW 09:45:43 88° NNW 09:50:17 10° ENE daylight
30 May - 11:23:13 10° W 11:27:36 48° N 11:32:03 10° ENE daylight
30 May - 13:05:05 10° WNW 13:09:37 64° NNE 13:14:13 10° E daylight
30 May - 14:46:47 10° WNW 14:51:08 44° SW 14:55:33 10° SE daylight
31 May - 08:16:46 10° SW 08:20:57 43° SE 08:25:13 10° ENE daylight
31 May - 09:58:00 10° W 10:02:26 63° NNW 10:06:57 10° ENE daylight
31 May - 11:40:03 10° WNW 11:44:27 48° N 11:48:54 10° E daylight
31 May - 13:21:45 10° WNW 13:26:20 88° NNE 13:30:58 10° ESE daylight
31 May - 15:03:47 10° W 15:07:33 25° SW 15:11:21 10° SSE daylight
01 Jun - 06:53:39 10° S 06:56:30 17° SE 06:59:23 10° E daylight
01 Jun - 08:33:03 10° SW 08:37:29 72° SSE 08:41:58 10° ENE daylight
01 Jun - 10:14:51 10° W 10:19:13 51° N 10:23:40 10° ENE daylight
01 Jun - 11:56:49 10° WNW 12:01:16 55° NNE 12:05:48 10° E daylight
01 Jun - 13:38:26 10° WNW 13:42:56 59° SSW 13:47:28 10° SE daylight
01 Jun - 15:21:33 10° WSW 15:23:50 14° SW 15:26:08 10° SSW daylight
02 Jun - 07:08:56 10° SSW 07:12:49 31° SE 07:16:45 10° E daylight
02 Jun - 08:49:40 10° WSW 08:54:07 76° NNW 08:58:39 10° ENE daylight
02 Jun - 10:31:43 10° WNW 10:36:04 47° N 10:40:29 10° ENE daylight
02 Jun - 12:13:29 10° WNW 12:18:02 73° NNE 12:22:37 10° ESE daylight
02 Jun - 13:55:16 10° WNW 13:59:25 34° SW 14:03:36 10° SSE daylight
